Location: Mountain Lakes
(44.1215°N, 71.9554°W)
Time: 17:53:52
(UTC+00:00)

Tsikada Rocket - Pass Details

Date: 08 September 2024
Orbit: 958 x 1008 km, 82.9° (Epoch: 12 October)

Event Time Altitude Azimuth Distance (km) Brightness Sun altitude
Rises 23:43:10 0° 354° (N) 3,676 7.3 -6.6°
Reaches altitude 10° 23:45:42 10° 357° (N) 2,732 6.6 -7.1°
Maximum altitude 23:51:56 66° 80° (E) 1,073 4.0 -8.2°
Drops below altitude 10° 23:58:11 10° 162° (SSE) 2,748 6.0 -9.3°
Sets 00:00:44 0° 165° (SSE) 3,700 6.7 -9.7°
